Showing default

KUIPER-00156, 65775

Orbit data source: Space-Track

KUIPER-00156, 65775 is a payload satellite owned by Kuiper Systems (US) in LEO that was launched on Thu, 25 Sep 2025 UTC via an ATLAS V 551 launch vehicle from the Air Force Eastern Test Range (AFETR). Payload-class satellites include a variety of spacecraft equipped with specific instruments for various scientific and technological missions. These include communications satellites like Starlink; space stations such as the ISS; scientific satellites like the Hubble; Earth observation satellites from companies like Planet Labs, Umbra, and HawkEye 360; GPS; miniature CubeSats for education and research; and military/defense satellites.

Loading next visibility...
Identifier
65775, 2025-217P
Orbit
LEO
Country
Flag of USUS
Related business
Manufacturer
Kuiper Systems
Mission
Operational Commercial Communications
Bus & Motor
KUIPER, Unknown motor
Mass
~490 kg wet, ~490 kg dry
Launch date (UTC)
2025-09-25 (9 months ago)
Launch vehicle
ATLAS V 551
Launch site
Air Force Eastern Test Range (AFETR)
Object type
Payload
Rocket body
Debris
Shape & HBR
Box + 2 Pan, 3.4 m
Radar Cross Section
2.326 m², Large (>1 m²)

Expand to show TLE details & history
Last TLE update: 1 day ago

TLE from 1 day ago
0 KUIPER-00156
1 65775U 25217P   26170.63845493  .00001611  00000-0  24032-3 0  9998
2 65775  51.9025 294.8355 0000614 107.6228 252.4802 14.79931074 40212
Epoch: 2026-06-19T15:19Z
TLE epoch observation values (Epoch: 2026-06-19T15:19:22.505Z)
Latitude
-0°
Longitude
157.12717°
Altitude
630.418 km
Speed
7.544 km/s
True Right ascension
19h 39m 20s
True Declination
0° 00' 00"
Sunlit
Object was in full shadow at epoch
Visualization orbit readout
Latitude
Unknown
Longitude
Unknown
Altitude
Unknown
Speed
Unknown
Apparent Right ascension
Unknown
Apparent Declination
Unknown
Sunlit
N/A
Visualization observer readout
Local Sidereal Time
07:13:33
Azimuth
Unknown
Elevation
Unknown
Doppler factor
Unknown
Orbital elements
Apogee altitude
630.423 km
Perigee altitude
629.562 km
Semi-major axis
7,008.129 km
Eccentricity
0.00006
Inclination
51.9025°
RAAN
294.8355°
Arg. of periapsis
107.6228°
True anomaly
252.47349°
Mean anomaly
252.4802°
Eccentric anomaly
252.47685°
Mean motion
3.69947 °/min
Orbital period
97.31 mins
BSTAR
0.00024032
Loading maneuver chart data...
Computing Atmospheric mass density...
Loading historical data...
Loading historical data...
Loading historical data...
Loading historical data...
Loading historical data...
Loading historical data...
Loading historical data...

Documentation

Showing up to 5 results
|